Home > Weather > Kolonia > Past weeks

Flag for Micronesia Past Weather in Kolonia, Pohnpei, Micronesia — Yesterday and Last 2 Weeks

Now
81 °F

Mostly cloudy.


Feels Like: 87 °F
Forecast: 78 / 86 °F
Wind: 6 mph from East

Location: Pohnpei

Current Time: Jun 25, 2016 at 7:42:21 PM

Latest Report: Jun 25, 2016 at 6:51 PM


Visibility: 13 mi

Pressure: 29.83 "Hg

Humidity: 83%

Dew Point: 75 °F

Location of KoloniaLocation

Past Weather in Kolonia — Graph

°F

Kolonia Temperature Yesterday

Maximum temperature yesterday: 89 °F (at 10:50 AM)
Minimum temperature yesterday: 78 °F (at 1:54 AM)
Average temperature yesterday: 83 °F

High & Low Weather Summary for the Past Weeks

 TemperatureHumidityPressure
High90 °F (Jun 13, 10:51 AM)98% (Jun 11, 11:53 PM)29.96 "Hg (Jun 11, 11:53 PM)
Low76 °F (Jun 13, 1:50 AM)66% (Jun 16, 1:55 PM)29.74 "Hg (Jun 23, 3:50 PM)
Average82 °F85%29.84 "Hg
* Reported Jun 10 5:50 PM — Jun 25 5:52 PM, Kolonia, Weather by CustomWeather, © 2016

Note: Actual official high and low records may vary slightly from our data, if they occured in-between our weather recording intervals... More about our weather records

Advertising

Kolonia Weather History for the Previous 24 Hours

Scroll right to see more
 ConditionsComfort  
Time TempWeatherWind HumidityBarometerVisibility
5:52 PM
Sat, Jun 25
81 °FMostly cloudy.3 mph83%29.82 "Hg15 mi
4:53 PM81 °FMostly cloudy.3 mph81%29.81 "Hg13 mi
3:53 PM81 °FMostly cloudy.3 mph86%29.80 "Hg13 mi
2:52 PM80 °FMostly cloudy.3 mph86%29.81 "Hg15 mi
1:54 PM80 °FMostly cloudy.No wind90%29.84 "Hg15 mi
12:53 PM78 °FLight rain. Mostly cloudy.3 mph92%29.86 "Hg12 mi
11:53 AM77 °FMostly cloudy.6 mph92%29.87 "Hg15 mi
10:51 AM77 °FSprinkles. Mostly cloudy.3 mph91%29.91 "Hg10 mi
9:54 AM78 °FSprinkles. Mostly cloudy.8 mph92%29.91 "Hg7 mi
9:01 AM77 °FSprinkles. Mostly cloudy.6 mph94%29.92 "Hg5 mi
8:52 AM77 °FThunderstorms. Mostly cloudy.6 mph92%29.91 "Hg5 mi
7:50 AM81 °FCloudy.3 mph88%29.87 "Hg15 mi
6:52 AM77 °FOvercast.3 mph95%29.84 "Hg15 mi
5:55 AM78 °FMostly cloudy.3 mph96%29.83 "Hg15 mi
4:54 AM77 °FMostly cloudy.3 mph96%29.83 "Hg15 mi
3:55 AM77 °FSprinkles. Mostly cloudy.3 mph95%29.83 "Hg12 mi
2:54 AM76 °FSprinkles. Mostly cloudy.5 mph96%29.82 "Hg12 mi
1:52 AM77 °FThunderstorms. Mostly cloudy.8 mph91%29.84 "Hg12 mi
12:54 AM79 °FSprinkles. Mostly cloudy.5 mph94%29.84 "Hg12 mi
11:54 PM
Fri, Jun 24
80 °FMostly cloudy.2 mph90%29.85 "Hg13 mi
10:52 PM81 °FMostly cloudy.6 mph88%29.86 "Hg13 mi
9:51 PM83 °FSprinkles. Mostly cloudy.14 mph82%29.85 "Hg12 mi
8:52 PM83 °FMostly cloudy.7 mph84%29.85 "Hg15 mi
7:53 PM83 °FMostly cloudy.3 mph87%29.83 "Hg15 mi
Weather by CustomWeather, © 2016

See weather overviewHow to use our weather pages